• In Latvia
  • List of Countries
  • For 7 days
  • Water Temperature
  • Satellite Maps
  • Weather Map
  • Weather Widgets
  • user-avatar
    Login

    Hourly Weather Stogniowice

    Today, 23 October, Tuesday

    Time Temperature Precipitation Wind Pressure Humidity
    00:00 +8°C° 0.1 mm 4 mps 749 mmHg 78%
    01:00 +7°C° 0 mm 4 mps 749 mmHg 80%
    02:00 +7°C° 0 mm 4 mps 748 mmHg 83%
    03:00 +6°C° 0 mm 4 mps 748 mmHg 85%
    04:00 +5°C° 0 mm 3 mps 748 mmHg 87%
    05:00 +5°C° 0 mm 4 mps 748 mmHg 88%
    06:00 +4°C° 0 mm 4 mps 747 mmHg 89%
    07:00 +4°C° 0 mm 4 mps 747 mmHg 89%
    08:00 +5°C° 0 mm 5 mps 746 mmHg 78%
    09:00 +7°C° 0 mm 6 mps 745 mmHg 68%
    10:00 +8°C° 0 mm 6 mps 744 mmHg 57%
    11:00 +8°C° 0 mm 7 mps 743 mmHg 56%
    12:00 +9°C° 0 mm 7 mps 742 mmHg 55%
    13:00 +9°C° 0 mm 8 mps 741 mmHg 54%
    14:00 +8°C° 0.5 mm 9 mps 740 mmHg 58%
    15:00 +7°C° 0.5 mm 9 mps 738 mmHg 62%
    16:00 +7°C° 0.5 mm 9 mps 737 mmHg 67%
    17:00 +7°C° 0.6 mm 10 mps 736 mmHg 70%
    18:00 +7°C° 0.6 mm 10 mps 735 mmHg 74%
    19:00 +7°C° 0.6 mm 10 mps 734 mmHg 78%
    20:00 +7°C° 0.7 mm 10 mps 734 mmHg 79%
    21:00 +8°C° 0.7 mm 10 mps 733 mmHg 80%
    22:00 +8°C° 0.7 mm 10 mps 732 mmHg 81%
    23:00 +8°C° 1.4 mm 9 mps 732 mmHg 80%

    Tomorrow, 24 October, Wednesday

    Time Temperature Precipitation Wind Pressure Humidity
    00:00 +8°C° 1.4 mm 9 mps 731 mmHg 80%
    01:00 +9°C° 1.4 mm 8 mps 731 mmHg 79%
    02:00 +7°C° 0.4 mm 8 mps 730 mmHg 78%
    03:00 +6°C° 0.4 mm 8 mps 730 mmHg 76%
    04:00 +6°C° 0.4 mm 9 mps 730 mmHg 74%
    05:00 +5°C° 0.2 mm 9 mps 730 mmHg 71%
    06:00 +5°C° 0.2 mm 9 mps 731 mmHg 69%
    07:00 +3°C° 0.2 mm 10 mps 731 mmHg 66%
    08:00 +5°C° 0.2 mm 10 mps 732 mmHg 62%
    09:00 +5°C° 0.2 mm 10 mps 732 mmHg 58%
    10:00 +4°C° 0.2 mm 11 mps 733 mmHg 55%
    11:00 +4°C° 0.1 mm 11 mps 733 mmHg 51%
    12:00 +6°C° 0.1 mm 11 mps 734 mmHg 47%
    13:00 +6°C° 0.1 mm 11 mps 734 mmHg 43%
    14:00 +5°C° 0 mm 10 mps 735 mmHg 45%
    15:00 +5°C° 0 mm 9 mps 735 mmHg 46%
    16:00 +5°C° 0 mm 9 mps 736 mmHg 47%
    17:00 +4°C° 0 mm 8 mps 737 mmHg 50%
    18:00 +4°C° 0 mm 7 mps 737 mmHg 52%
    19:00 +3°C° 0 mm 7 mps 738 mmHg 55%
    20:00 +3°C° 0 mm 7 mps 738 mmHg 56%
    21:00 +3°C° 0 mm 7 mps 739 mmHg 58%
    22:00 +2°C° 0 mm 7 mps 740 mmHg 60%
    23:00 +2°C° 0 mm 6 mps 740 mmHg 62%

    Day after tomorrow, 25 October, Thursday

    Time Temperature Precipitation Wind Pressure Humidity
    00:00 +2°C° 0 mm 6 mps 740 mmHg 64%
    01:00 +2°C° 0 mm 6 mps 741 mmHg 66%
    02:00 +1°C° 0 mm 6 mps 741 mmHg 70%
    03:00 +1°C° 0 mm 5 mps 741 mmHg 73%
    04:00 +1°C° 0 mm 5 mps 741 mmHg 77%
    05:00 +1°C° 0 mm 5 mps 740 mmHg 77%
    06:00 +1°C° 0 mm 5 mps 740 mmHg 76%
    07:00 +1°C° 0 mm 5 mps 740 mmHg 76%
    08:00 +2°C° 0.6 mm 5 mps 739 mmHg 78%
    09:00 +3°C° 0.6 mm 5 mps 738 mmHg 79%
    10:00 +4°C° 0.6 mm 6 mps 738 mmHg 81%
    11:00 +5°C° 0.8 mm 6 mps 737 mmHg 82%
    12:00 +8°C° 0.8 mm 7 mps 737 mmHg 84%
    13:00 +9°C° 0.8 mm 8 mps 736 mmHg 85%
    14:00 +9°C° 0.3 mm 8 mps 736 mmHg 85%
    15:00 +9°C° 0.3 mm 8 mps 736 mmHg 84%
    16:00 +9°C° 0.3 mm 8 mps 736 mmHg 84%
    17:00 +9°C° 0.2 mm 8 mps 736 mmHg 84%
    18:00 +9°C° 0.2 mm 7 mps 736 mmHg 83%
    19:00 +9°C° 0.2 mm 7 mps 737 mmHg 83%
    20:00 +9°C° 0.4 mm 7 mps 737 mmHg 83%
    21:00 +9°C° 0.4 mm 6 mps 737 mmHg 84%
    22:00 +8°C° 0.4 mm 5 mps 738 mmHg 84%
    23:00 +8°C° 0.2 mm 5 mps 738 mmHg 84%

    26 October, Friday

    Time Temperature Precipitation Wind Pressure Humidity
    00:00 +8°C° 0.2 mm 5 mps 738 mmHg 84%
    01:00 +7°C° 0.2 mm 4 mps 738 mmHg 84%
    02:00 +7°C° 0.1 mm 4 mps 738 mmHg 85%
    03:00 +7°C° 0.1 mm 4 mps 738 mmHg 86%
    04:00 +7°C° 0.1 mm 4 mps 738 mmHg 87%
    05:00 +7°C° 0.1 mm 4 mps 739 mmHg 87%
    06:00 +6°C° 0.1 mm 4 mps 739 mmHg 87%
    07:00 +6°C° 0.1 mm 4 mps 739 mmHg 87%
    08:00 +7°C° 0 mm 4 mps 739 mmHg 81%
    09:00 +8°C° 0 mm 4 mps 739 mmHg 74%
    10:00 +11°C° 0 mm 4 mps 739 mmHg 68%
    11:00 +11°C° 0 mm 4 mps 738 mmHg 66%
    12:00 +12°C° 0 mm 4 mps 738 mmHg 65%
    13:00 +13°C° 0 mm 4 mps 737 mmHg 64%
    14:00 +13°C° 0 mm 4 mps 737 mmHg 66%
    15:00 +12°C° 0 mm 4 mps 736 mmHg 69%
    16:00 +12°C° 0 mm 4 mps 736 mmHg 72%
    17:00 +11°C° 0 mm 4 mps 736 mmHg 75%
    18:00 +10°C° 0 mm 4 mps 736 mmHg 77%
    19:00 +10°C° 0 mm 4 mps 735 mmHg 80%
    20:00 +10°C° 0 mm 4 mps 735 mmHg 81%
    21:00 +10°C° 0 mm 4 mps 735 mmHg 82%
    22:00 +10°C° 0 mm 4 mps 735 mmHg 82%
    23:00 +8°C° 0 mm 5 mps 735 mmHg 82%

    27 October, Saturday

    Time Temperature Precipitation Wind Pressure Humidity
    00:00 +8°C° 0 mm 5 mps 735 mmHg 82%
    01:00 +8°C° 0 mm 5 mps 735 mmHg 82%
    02:00 +7°C° 0 mm 5 mps 736 mmHg 81%
    03:00 +7°C° 0 mm 5 mps 736 mmHg 80%
    04:00 +7°C° 0 mm 5 mps 736 mmHg 79%
    05:00 +7°C° 0 mm 5 mps 736 mmHg 78%
    06:00 +6°C° 0 mm 4 mps 736 mmHg 77%
    07:00 +6°C° 0 mm 4 mps 737 mmHg 76%
    08:00 +7°C° 0 mm 4 mps 737 mmHg 68%
    09:00 +7°C° 0 mm 5 mps 737 mmHg 61%
    10:00 +8°C° 0 mm 5 mps 738 mmHg 54%
    11:00 +8°C° 0 mm 5 mps 738 mmHg 53%
    12:00 +9°C° 0 mm 5 mps 738 mmHg 51%
    13:00 +10°C° 0 mm 4 mps 738 mmHg 49%
    14:00 +8°C° 0 mm 4 mps 738 mmHg 51%
    15:00 +9°C° 0 mm 3 mps 738 mmHg 53%
    16:00 +8°C° 0 mm 2 mps 738 mmHg 55%
    17:00 +8°C° 0 mm 2 mps 739 mmHg 57%
    18:00 +9°C° 0 mm 1 mps 739 mmHg 59%
    19:00 +8°C° 0 mm 1 mps 739 mmHg 61%
    20:00 +8°C° 0 mm 1 mps 739 mmHg 63%
    21:00 +8°C° 0 mm 1 mps 739 mmHg 64%
    22:00 +8°C° 0 mm 1 mps 740 mmHg 66%
    23:00 +7°C° 0.2 mm 1 mps 740 mmHg 69%

    28 October, Sunday

    Time Temperature Precipitation Wind Pressure Humidity
    00:00 +6°C° 0.2 mm 2 mps 740 mmHg 72%
    01:00 +6°C° 0.2 mm 2 mps 740 mmHg 74%
    02:00 +6°C° 0.4 mm 2 mps 740 mmHg 77%
    03:00 +5°C° 0.4 mm 3 mps 739 mmHg 79%
    04:00 +4°C° 0.4 mm 3 mps 739 mmHg 81%
    05:00 +4°C° 0.3 mm 3 mps 739 mmHg 82%
    06:00 +4°C° 0.3 mm 4 mps 739 mmHg 83%
    07:00 +4°C° 0.3 mm 4 mps 739 mmHg 84%
    08:00 +3°C° 0.3 mm 5 mps 739 mmHg 84%
    09:00 +3°C° 0.3 mm 5 mps 739 mmHg 83%
    10:00 +4°C° 0.3 mm 6 mps 739 mmHg 82%
    11:00 +4°C° 0.8 mm 6 mps 738 mmHg 84%
    12:00 +4°C° 0.8 mm 6 mps 738 mmHg 86%
    13:00 +4°C° 0.8 mm 6 mps 737 mmHg 87%
    14:00 +5°C° 0.9 mm 5 mps 737 mmHg 89%
    15:00 +5°C° 0.9 mm 5 mps 737 mmHg 90%
    16:00 +5°C° 0.9 mm 5 mps 736 mmHg 91%
    17:00 +5°C° 0.9 mm 5 mps 736 mmHg 92%
    18:00 +5°C° 0.9 mm 4 mps 736 mmHg 93%
    19:00 +5°C° 0.9 mm 4 mps 736 mmHg 94%
    20:00 +5°C° 0.8 mm 4 mps 736 mmHg 94%
    21:00 +6°C° 0.8 mm 4 mps 736 mmHg 94%
    22:00 +6°C° 0.8 mm 4 mps 735 mmHg 95%
    23:00 +6°C° 0.5 mm 4 mps 735 mmHg 95%

    29 October, Monday

    Time Temperature Precipitation Wind Pressure Humidity
    00:00 +7°C° 0.5 mm 3 mps 734 mmHg 95%
    01:00 +8°C° 0.5 mm 3 mps 734 mmHg 95%
    02:00 +8°C° 0.1 mm 3 mps 733 mmHg 94%
    03:00 +9°C° 0.1 mm 3 mps 733 mmHg 93%
    04:00 +9°C° 0.1 mm 3 mps 733 mmHg 92%
    05:00 +10°C° 0.1 mm 3 mps 732 mmHg 91%
    06:00 +10°C° 0.1 mm 3 mps 732 mmHg 89%
    07:00 +10°C° 0.1 mm 3 mps 732 mmHg 88%
    08:00 +11°C° 0.3 mm 3 mps 732 mmHg 84%
    09:00 +12°C° 0.3 mm 4 mps 732 mmHg 81%
    10:00 +13°C° 0.3 mm 4 mps 732 mmHg 78%
    11:00 +14°C° 0.3 mm 4 mps 732 mmHg 78%
    12:00 +14°C° 0.3 mm 4 mps 732 mmHg 78%
    13:00 +14°C° 0.3 mm 4 mps 732 mmHg 79%
    14:00 +14°C° 0.1 mm 4 mps 732 mmHg 81%
    15:00 +13°C° 0.1 mm 3 mps 732 mmHg 82%
    16:00 +13°C° 0.1 mm 3 mps 732 mmHg 84%
    17:00 +13°C° 0 mm 3 mps 732 mmHg 86%
    18:00 +13°C° 0 mm 3 mps 732 mmHg 87%
    19:00 +12°C° 0 mm 3 mps 732 mmHg 89%
    20:00 +12°C° 0 mm 3 mps 732 mmHg 89%
    21:00 +12°C° 0 mm 3 mps 732 mmHg 90%
    22:00 +12°C° 0 mm 3 mps 732 mmHg 90%
    23:00 +12°C° 0 mm 3 mps 732 mmHg 90%
    Show more